Falkenburg Branch, FL (33689)

11:57 AM EST on February 27, 2015 (GMT -0500)
Radio Station W9DKC | Change Station
CLOSE
Current Station
Personal Weather Station
Location: Tampa, FL
Elevation: 34 ft
Nearby Weather Stations

Elev 34 ft 27.98 °N, 82.41 °W | Updated 2 minutes ago

Overcast
Overcast
59.6 °F
Feels Like 59.6 °F
N
1.0
Wind Variable Wind from East
Gusts 8.0 mph

Today
High -- | Low -- °F
--% Chance of Precip.
Yesterday
High -- | Low -- °F
Precip. -- in
6:56 AM 6:28 PM
Waxing Gibbous, 70% visible
Pressure 30.23 in
Visibility 10.0 miles
Clouds Overcast 2300 ft
Dew Point 50 °F
Humidity 71%
Rainfall 0.00 in
Snow Depth Not available.
UV 3 out of 12
Pollen 10.50 out of 12
Air Quality Not available.
Flu Activity Not available.
METAR KTPF 271635Z AUTO 04010KT 10SM OVC023 16/10 A3023 RMK AO2

More Conditions Fewer Conditions

Pressure 30.23 in
Visibility 10.0 miles
Clouds Overcast 2300 ft
Dew Point 50 °F
Humidity 71%
Rainfall 0.00 in
Snow Depth Not available.
UV 3 out of 12
Pollen 10.50 out of 12
Air Quality Not available.
Flu Activity Not available.
METAR KTPF 271635Z AUTO 04010KT 10SM OVC023 16/10 A3023 RMK AO2

More Conditions Fewer Conditions

10-Day Weather Forecast

Almanac

Astronomy

Feb. 27, 2015 Rise Set
Actual Time
Civil Twilight
Nautical Twilight
Astronomical Twilight
Moon
Length of Visible Light
Length of Day
Tomorrow will be .
, % of the Moon is Illuminated

Today's Extremes

State Highs State Lows

Community

WunderPhotos

Upload Photos

1,800,732 photos uploaded!

WunderBlogs® & News

Nearby

Air Quality

  Air Quality AQ Index Pollutant
Not available.

Snow Depth

Station Depth Elevation

Earthquake Activity

City Distance Mag. Time & Date
Minimum magnitude displayed is 2.5.

Coastal Water Temperatures

Place Temperature

Nearby Weather Stations